Time,TemperatureF,DewpointF,PressureIn,WindDirection,WindDirectionDegrees,WindSpeedMPH,WindSpeedGustMPH,Humidity,HourlyPrecipIn,Conditions,Clouds,dailyrainin,SoftwareType,DateUTC
2013-07-09 00:01:00,70.5,69.6,30.28,South,180,0.0,0.0,97,0.00,,,0.22,Wunderground v.1.13,2013-07-09 04:01:00,
2013-07-09 00:02:00,70.4,69.5,30.28,South,180,0.0,0.0,97,0.00,,,0.22,Wunderground v.1.13,2013-07-09 04:02:00,
2013-07-09 00:03:00,70.4,69.5,30.28,South,180,0.0,0.0,97,0.00,,,0.22,Wunderground v.1.13,2013-07-09 04:03:00,
2013-07-09 00:08:00,70.3,69.4,30.28,South,180,0.0,0.0,97,0.00,,,0.22,Wunderground v.1.13,2013-07-09 04:08:00,
2013-07-09 00:13:00,70.1,69.2,30.28,South,180,0.0,0.0,97,0.00,,,0.22,Wunderground v.1.13,2013-07-09 04:13:00,
2013-07-09 00:18:00,70.1,69.2,30.28,South,180,0.0,0.0,97,0.00,,,0.22,Wunderground v.1.13,2013-07-09 04:18:00,
2013-07-09 00:23:00,70.0,69.1,30.28,South,180,0.0,0.0,97,0.00,,,0.22,Wunderground v.1.13,2013-07-09 04:23:00,
2013-07-09 00:29:00,69.9,69.0,30.28,South,180,0.0,0.0,97,0.00,,,0.22,Wunderground v.1.13,2013-07-09 04:29:00,
2013-07-09 00:34:00,69.7,68.8,30.28,South,180,0.0,0.0,97,0.00,,,0.22,Wunderground v.1.13,2013-07-09 04:34:00,
2013-07-09 00:39:00,69.4,68.5,30.29,South,180,0.0,0.0,97,0.00,,,0.22,Wunderground v.1.13,2013-07-09 04:39:00,
2013-07-09 00:44:00,69.5,68.6,30.29,South,180,0.0,0.0,97,0.00,,,0.22,Wunderground v.1.13,2013-07-09 04:44:00,
2013-07-09 00:50:00,69.4,68.5,30.29,South,180,0.0,0.0,97,0.00,,,0.22,Wunderground v.1.13,2013-07-09 04:50:00,
2013-07-09 00:56:00,69.3,68.4,30.28,South,180,0.0,0.0,97,0.00,,,0.22,Wunderground v.1.13,2013-07-09 04:56:00,
2013-07-09 01:01:00,69.4,68.5,30.28,South,180,0.0,0.0,97,0.00,,,0.22,Wunderground v.1.13,2013-07-09 05:01:00,
2013-07-09 01:06:00,69.5,68.6,30.28,South,180,0.0,0.0,97,0.00,,,0.22,Wunderground v.1.13,2013-07-09 05:06:00,
2013-07-09 01:11:00,69.5,68.9,30.28,South,180,0.0,0.0,98,0.00,,,0.22,Wunderground v.1.13,2013-07-09 05:11:00,
2013-07-09 01:17:00,69.5,68.9,30.27,South,180,0.0,0.0,98,0.00,,,0.22,Wunderground v.1.13,2013-07-09 05:17:00,
2013-07-09 01:22:00,69.4,68.8,30.27,South,180,0.0,0.0,98,0.00,,,0.00,Wunderground v.1.13,2013-07-09 05:22:00,
2013-07-09 01:28:00,69.3,68.7,30.27,South,180,0.0,0.0,98,0.00,,,0.00,Wunderground v.1.13,2013-07-09 05:28:00,
2013-07-09 01:33:00,69.2,68.6,30.27,South,180,0.0,0.0,98,0.00,,,0.00,Wunderground v.1.13,2013-07-09 05:33:00,
2013-07-09 01:38:00,69.1,68.5,30.27,South,180,0.0,0.0,98,0.00,,,0.00,Wunderground v.1.13,2013-07-09 05:38:00,
2013-07-09 01:43:00,69.0,68.1,30.27,South,180,0.0,0.0,97,0.00,,,0.00,Wunderground v.1.13,2013-07-09 05:43:00,
2013-07-09 01:48:00,69.0,68.4,30.27,South,180,0.0,0.0,98,0.00,,,0.00,Wunderground v.1.13,2013-07-09 05:48:00,
2013-07-09 01:54:00,69.2,68.6,30.27,South,180,0.0,0.0,98,0.00,,,0.00,Wunderground v.1.13,2013-07-09 05:54:00,
2013-07-09 01:59:00,69.1,68.5,30.27,South,180,0.0,0.0,98,0.00,,,0.00,Wunderground v.1.13,2013-07-09 05:59:00,
2013-07-09 02:04:00,69.1,68.5,30.27,South,180,0.0,0.0,98,0.00,,,0.00,Wunderground v.1.13,2013-07-09 06:04:00,
2013-07-09 02:09:00,69.2,68.6,30.27,South,180,0.0,0.0,98,0.00,,,0.00,Wunderground v.1.13,2013-07-09 06:09:00,
2013-07-09 02:14:00,69.1,68.5,30.27,South,180,0.0,0.0,98,0.00,,,0.00,Wunderground v.1.13,2013-07-09 06:14:00,
2013-07-09 02:19:00,69.2,68.6,30.27,South,180,0.0,0.0,98,0.00,,,0.00,Wunderground v.1.13,2013-07-09 06:19:00,
2013-07-09 02:24:00,69.4,68.8,30.27,South,180,0.0,0.0,98,0.00,,,0.00,Wunderground v.1.13,2013-07-09 06:24:00,
2013-07-09 02:29:00,69.4,68.8,30.27,South,180,0.0,0.0,98,0.00,,,0.00,Wunderground v.1.13,2013-07-09 06:29:00,
2013-07-09 02:34:00,69.6,69.0,30.27,South,180,0.0,0.0,98,0.00,,,0.00,Wunderground v.1.13,2013-07-09 06:34:00,
2013-07-09 02:39:00,69.6,69.0,30.27,South,180,0.0,0.0,98,0.00,,,0.00,Wunderground v.1.13,2013-07-09 06:39:00,
2013-07-09 02:44:00,69.6,69.0,30.26,South,180,0.0,0.0,98,0.00,,,0.00,Wunderground v.1.13,2013-07-09 06:44:00,
2013-07-09 02:49:00,69.6,69.0,30.25,South,180,0.0,0.0,98,0.00,,,0.00,Wunderground v.1.13,2013-07-09 06:49:00,
2013-07-09 02:54:00,69.5,68.9,30.25,South,180,0.0,0.0,98,0.00,,,0.00,Wunderground v.1.13,2013-07-09 06:54:00,
2013-07-09 02:59:00,69.4,68.8,30.25,South,180,0.0,0.0,98,0.00,,,0.00,Wunderground v.1.13,2013-07-09 06:59:00,
2013-07-09 03:05:00,69.2,68.6,30.25,South,180,0.0,0.0,98,0.00,,,0.00,Wunderground v.1.13,2013-07-09 07:05:00,
2013-07-09 03:10:00,69.1,68.5,30.25,South,180,0.0,0.0,98,0.00,,,0.00,Wunderground v.1.13,2013-07-09 07:10:00,
2013-07-09 03:15:00,69.0,68.4,30.25,South,180,0.0,0.0,98,0.00,,,0.00,Wunderground v.1.13,2013-07-09 07:15:00,
2013-07-09 03:20:00,68.9,68.3,30.26,South,180,0.0,0.0,98,0.00,,,0.00,Wunderground v.1.13,2013-07-09 07:20:00,
2013-07-09 03:25:00,68.8,68.2,30.26,South,180,0.0,0.0,98,0.00,,,0.00,Wunderground v.1.13,2013-07-09 07:25:00,
2013-07-09 03:30:00,68.9,68.3,30.25,South,180,0.0,0.0,98,0.00,,,0.00,Wunderground v.1.13,2013-07-09 07:30:00,
2013-07-09 03:35:00,68.9,68.3,30.26,South,180,0.0,0.0,98,0.00,,,0.00,Wunderground v.1.13,2013-07-09 07:35:00,
2013-07-09 03:40:00,68.8,68.2,30.25,South,180,0.0,0.0,98,0.00,,,0.00,Wunderground v.1.13,2013-07-09 07:40:00,
2013-07-09 03:45:00,68.8,68.2,30.26,South,180,0.0,0.0,98,0.00,,,0.00,Wunderground v.1.13,2013-07-09 07:45:00,
2013-07-09 03:52:00,68.7,68.1,30.26,South,180,0.0,0.0,98,0.00,,,0.00,Wunderground v.1.13,2013-07-09 07:52:00,
2013-07-09 03:57:00,68.6,68.0,30.26,South,180,0.0,0.0,98,0.00,,,0.00,Wunderground v.1.13,2013-07-09 07:57:00,
2013-07-09 04:02:00,68.6,68.0,30.26,South,180,0.0,0.0,98,0.00,,,0.00,Wunderground v.1.13,2013-07-09 08:02:00,
2013-07-09 04:07:00,68.6,68.0,30.26,South,180,0.0,0.0,98,0.00,,,0.00,Wunderground v.1.13,2013-07-09 08:07:00,
2013-07-09 04:13:00,68.5,67.9,30.27,South,180,0.0,0.0,98,0.00,,,0.00,Wunderground v.1.13,2013-07-09 08:13:00,
2013-07-09 04:18:00,68.5,67.9,30.27,South,180,0.0,0.0,98,0.00,,,0.00,Wunderground v.1.13,2013-07-09 08:18:00,
2013-07-09 04:23:00,68.5,67.9,30.26,South,180,0.0,0.0,98,0.00,,,0.00,Wunderground v.1.13,2013-07-09 08:23:00,
2013-07-09 04:28:00,68.5,67.9,30.27,South,180,0.0,0.0,98,0.00,,,0.00,Wunderground v.1.13,2013-07-09 08:28:00,
2013-07-09 04:33:00,68.5,67.9,30.27,South,180,0.0,0.0,98,0.00,,,0.00,Wunderground v.1.13,2013-07-09 08:33:00,
2013-07-09 04:38:00,68.5,67.9,30.27,South,180,0.0,0.0,98,0.00,,,0.00,Wunderground v.1.13,2013-07-09 08:38:00,
2013-07-09 04:43:00,68.5,67.9,30.27,South,180,0.0,0.0,98,0.00,,,0.00,Wunderground v.1.13,2013-07-09 08:43:00,
2013-07-09 04:48:00,68.4,67.8,30.27,South,180,0.0,0.0,98,0.00,,,0.00,Wunderground v.1.13,2013-07-09 08:48:00,
2013-07-09 04:53:00,68.3,67.7,30.26,South,180,0.0,0.0,98,0.00,,,0.00,Wunderground v.1.13,2013-07-09 08:53:00,
2013-07-09 04:58:00,68.1,67.5,30.27,South,180,0.0,0.0,98,0.00,,,0.00,Wunderground v.1.13,2013-07-09 08:58:00,
2013-07-09 05:03:00,68.0,67.4,30.27,South,180,0.0,0.0,98,0.00,,,0.00,Wunderground v.1.13,2013-07-09 09:03:00,
2013-07-09 05:08:00,68.0,67.4,30.27,South,180,0.0,0.0,98,0.00,,,0.00,Wunderground v.1.13,2013-07-09 09:08:00,
2013-07-09 05:13:00,68.0,67.4,30.27,South,180,0.0,0.0,98,0.00,,,0.00,Wunderground v.1.13,2013-07-09 09:13:00,
2013-07-09 05:18:00,68.0,67.4,30.27,South,180,0.0,0.0,98,0.00,,,0.00,Wunderground v.1.13,2013-07-09 09:18:00,
2013-07-09 05:24:00,67.9,67.3,30.26,South,180,0.0,0.0,98,0.00,,,0.00,Wunderground v.1.13,2013-07-09 09:24:00,
2013-07-09 05:29:00,67.9,67.3,30.26,South,180,0.0,0.0,98,0.00,,,0.00,Wunderground v.1.13,2013-07-09 09:29:00,
2013-07-09 05:34:00,67.9,67.3,30.26,South,180,0.0,0.0,98,0.00,,,0.00,Wunderground v.1.13,2013-07-09 09:34:00,
2013-07-09 05:39:00,67.9,67.3,30.26,South,180,0.0,0.0,98,0.00,,,0.00,Wunderground v.1.13,2013-07-09 09:39:00,
2013-07-09 05:44:00,68.0,67.4,30.26,South,180,0.0,0.0,98,0.00,,,0.00,Wunderground v.1.13,2013-07-09 09:44:00,
2013-07-09 05:49:00,68.0,67.4,30.26,South,180,0.0,0.0,98,0.00,,,0.00,Wunderground v.1.13,2013-07-09 09:49:00,
2013-07-09 05:54:00,68.0,67.4,30.26,South,180,0.0,0.0,98,0.00,,,0.00,Wunderground v.1.13,2013-07-09 09:54:00,
2013-07-09 05:59:00,68.0,67.4,30.26,South,180,0.0,0.0,98,0.00,,,0.00,Wunderground v.1.13,2013-07-09 09:59:00,
2013-07-09 06:04:00,67.9,67.3,30.26,South,180,0.0,0.0,98,0.00,,,0.00,Wunderground v.1.13,2013-07-09 10:04:00,
2013-07-09 06:09:00,67.8,67.2,30.26,South,180,0.0,0.0,98,0.00,,,0.00,Wunderground v.1.13,2013-07-09 10:09:00,
2013-07-09 06:14:00,67.7,67.1,30.26,South,180,0.0,0.0,98,0.00,,,0.00,Wunderground v.1.13,2013-07-09 10:14:00,
2013-07-09 06:19:00,67.6,67.0,30.26,South,180,0.0,0.0,98,0.00,,,0.00,Wunderground v.1.13,2013-07-09 10:19:00,
2013-07-09 06:24:00,67.5,66.9,30.26,South,180,0.0,0.0,98,0.00,,,0.00,Wunderground v.1.13,2013-07-09 10:24:00,
2013-07-09 06:29:00,67.4,66.8,30.26,South,180,0.0,0.0,98,0.00,,,0.00,Wunderground v.1.13,2013-07-09 10:29:00,
2013-07-09 06:34:00,67.4,66.8,30.26,South,180,0.0,0.0,98,0.00,,,0.00,Wunderground v.1.13,2013-07-09 10:34:00,
2013-07-09 06:39:00,67.4,66.8,30.27,South,180,0.0,0.0,98,0.00,,,0.00,Wunderground v.1.13,2013-07-09 10:39:00,
2013-07-09 06:44:00,67.4,66.8,30.27,South,180,0.0,0.0,98,0.00,,,0.00,Wunderground v.1.13,2013-07-09 10:44:00,
2013-07-09 06:49:00,67.4,66.8,30.27,South,180,0.0,0.0,98,0.00,,,0.00,Wunderground v.1.13,2013-07-09 10:49:00,
2013-07-09 06:54:00,67.5,66.9,30.27,South,180,0.0,0.0,98,0.00,,,0.00,Wunderground v.1.13,2013-07-09 10:54:00,
2013-07-09 06:59:00,67.6,67.0,30.27,South,180,0.0,0.0,98,0.00,,,0.00,Wunderground v.1.13,2013-07-09 10:59:00,
2013-07-09 07:04:00,67.7,67.1,30.27,South,180,0.0,0.0,98,0.00,,,0.00,Wunderground v.1.13,2013-07-09 11:04:00,
2013-07-09 07:10:00,67.8,67.2,30.27,South,180,0.0,0.0,98,0.00,,,0.00,Wunderground v.1.13,2013-07-09 11:10:00,
2013-07-09 07:14:00,67.9,67.6,30.27,South,180,0.0,0.0,99,0.00,,,0.00,Wunderground v.1.13,2013-07-09 11:14:00,
2013-07-09 07:19:00,68.1,67.8,30.27,South,180,0.0,0.0,99,0.00,,,0.00,Wunderground v.1.13,2013-07-09 11:19:00,
2013-07-09 07:24:00,68.3,68.0,30.27,South,180,0.0,0.0,99,0.00,,,0.00,Wunderground v.1.13,2013-07-09 11:24:00,
2013-07-09 07:29:00,68.4,68.1,30.27,South,180,0.0,0.0,99,0.00,,,0.00,Wunderground v.1.13,2013-07-09 11:29:00,
2013-07-09 07:35:00,68.6,68.3,30.28,South,180,0.0,0.0,99,0.00,,,0.00,Wunderground v.1.13,2013-07-09 11:35:00,
2013-07-09 07:40:00,68.6,68.3,30.28,South,180,0.0,0.0,99,0.00,,,0.00,Wunderground v.1.13,2013-07-09 11:40:00,
2013-07-09 07:45:00,68.6,68.3,30.28,South,180,0.0,0.0,99,0.00,,,0.00,Wunderground v.1.13,2013-07-09 11:45:00,
2013-07-09 07:50:00,68.6,68.3,30.28,South,180,0.0,0.0,99,0.00,,,0.00,Wunderground v.1.13,2013-07-09 11:50:00,
2013-07-09 07:55:00,68.6,68.3,30.28,South,180,0.0,0.0,99,0.00,,,0.00,Wunderground v.1.13,2013-07-09 11:55:00,
2013-07-09 08:00:00,68.7,68.4,30.28,South,180,0.0,0.0,99,0.00,,,0.00,Wunderground v.1.13,2013-07-09 12:00:00,
2013-07-09 08:05:00,68.7,68.4,30.28,South,180,0.0,0.0,99,0.00,,,0.00,Wunderground v.1.13,2013-07-09 12:05:00,
2013-07-09 08:10:00,68.8,68.5,30.28,South,180,0.0,0.0,99,0.00,,,0.00,Wunderground v.1.13,2013-07-09 12:10:00,
2013-07-09 08:15:00,68.9,68.6,30.28,South,180,0.0,0.0,99,0.00,,,0.00,Wunderground v.1.13,2013-07-09 12:15:00,
2013-07-09 08:20:00,68.9,68.6,30.28,South,180,0.0,0.0,99,0.00,,,0.00,Wunderground v.1.13,2013-07-09 12:20:00,
2013-07-09 08:25:00,69.0,68.7,30.28,South,180,0.0,0.0,99,0.00,,,0.00,Wunderground v.1.13,2013-07-09 12:25:00,
2013-07-09 08:30:00,69.2,68.9,30.29,South,180,0.0,0.0,99,0.00,,,0.00,Wunderground v.1.13,2013-07-09 12:30:00,
2013-07-09 08:35:00,69.4,69.1,30.29,South,180,0.0,0.0,99,0.00,,,0.00,Wunderground v.1.13,2013-07-09 12:35:00,
2013-07-09 08:40:00,69.3,69.0,30.29,South,180,0.0,0.0,99,0.00,,,0.00,Wunderground v.1.13,2013-07-09 12:40:00,
2013-07-09 08:45:00,69.2,68.9,30.29,South,180,0.0,0.0,99,0.00,,,0.00,Wunderground v.1.13,2013-07-09 12:45:00,
2013-07-09 08:50:00,69.2,68.9,30.29,South,180,0.0,0.0,99,0.00,,,0.00,Wunderground v.1.13,2013-07-09 12:50:00,
2013-07-09 08:55:00,69.3,69.0,30.29,South,180,0.0,0.0,99,0.00,,,0.00,Wunderground v.1.13,2013-07-09 12:55:00,
2013-07-09 09:00:00,69.5,69.2,30.29,South,180,0.0,0.0,99,0.00,,,0.00,Wunderground v.1.13,2013-07-09 13:00:00,
2013-07-09 09:05:00,69.7,69.4,30.29,South,180,0.0,0.0,99,0.00,,,0.00,Wunderground v.1.13,2013-07-09 13:05:00,
2013-07-09 12:45:00,81.3,74.5,30.29,WSW,258,0.0,0.0,80,0.00,,,0.00,Wunderground v.1.13,2013-07-09 16:45:00,
2013-07-09 12:50:00,81.3,73.8,30.30,WSW,258,0.0,0.0,78,0.00,,,0.00,Wunderground v.1.13,2013-07-09 16:50:00,
2013-07-09 12:55:00,80.9,73.4,30.29,WSW,258,0.0,0.0,78,0.00,,,0.00,Wunderground v.1.13,2013-07-09 16:55:00,
2013-07-09 13:00:00,80.1,71.8,30.29,WSW,258,0.0,0.0,76,0.00,,,0.00,Wunderground v.1.13,2013-07-09 17:00:00,
2013-07-09 13:05:00,79.5,72.4,30.29,WSW,258,0.0,0.0,79,0.00,,,0.00,Wunderground v.1.13,2013-07-09 17:05:00,
2013-07-09 13:10:00,79.0,72.7,30.29,WSW,258,0.0,0.0,81,0.00,,,0.00,Wunderground v.1.13,2013-07-09 17:10:00,
2013-07-09 13:15:00,78.6,71.9,30.28,WSW,258,0.0,0.0,80,0.00,,,0.00,Wunderground v.1.13,2013-07-09 17:15:00,
2013-07-09 13:20:00,79.0,72.7,30.28,WSW,258,0.0,0.0,81,0.00,,,0.00,Wunderground v.1.13,2013-07-09 17:20:00,
2013-07-09 13:25:00,79.9,72.4,30.28,WSW,258,0.0,0.0,78,0.00,,,0.00,Wunderground v.1.13,2013-07-09 17:25:00,
2013-07-09 13:30:00,80.7,73.6,30.27,WSW,258,0.0,0.0,79,0.00,,,0.00,Wunderground v.1.13,2013-07-09 17:30:00,
2013-07-09 13:35:00,81.3,72.6,30.27,West,268,0.0,0.0,75,0.00,,,0.00,Wunderground v.1.13,2013-07-09 17:35:00,
2013-07-09 13:40:00,81.4,71.5,30.27,West,268,0.0,0.0,72,0.00,,,0.00,Wunderground v.1.13,2013-07-09 17:40:00,
2013-07-09 13:45:00,81.5,73.2,30.26,West,268,0.0,0.0,76,0.00,,,0.00,Wunderground v.1.13,2013-07-09 17:45:00,
2013-07-09 13:50:00,82.0,73.7,30.26,West,268,0.0,0.0,76,0.00,,,0.00,Wunderground v.1.13,2013-07-09 17:50:00,
2013-07-09 13:55:00,82.6,73.5,30.26,West,266,0.0,0.0,74,0.00,,,0.00,Wunderground v.1.13,2013-07-09 17:55:00,
2013-07-09 14:00:00,83.1,72.3,30.25,West,266,0.0,0.0,70,0.00,,,0.00,Wunderground v.1.13,2013-07-09 18:00:00,
2013-07-09 14:05:00,83.6,73.6,30.25,West,266,0.0,0.0,72,0.00,,,0.00,Wunderground v.1.13,2013-07-09 18:05:00,
2013-07-09 14:10:00,83.6,74.4,30.25,West,266,0.0,0.0,74,0.00,,,0.00,Wunderground v.1.13,2013-07-09 18:10:00,
2013-07-09 14:15:00,83.7,73.3,30.25,West,266,0.0,0.0,71,0.00,,,0.00,Wunderground v.1.13,2013-07-09 18:15:00,
2013-07-09 14:20:00,84.0,71.9,30.25,West,267,0.0,1.0,67,0.00,,,0.00,Wunderground v.1.13,2013-07-09 18:20:00,
2013-07-09 14:25:00,84.3,71.7,30.24,WSW,256,1.0,1.0,66,0.00,,,0.00,Wunderground v.1.13,2013-07-09 18:25:00,
2013-07-09 14:30:00,84.7,73.0,30.24,WSW,256,0.0,0.0,68,0.00,,,0.00,Wunderground v.1.13,2013-07-09 18:30:00,
2013-07-09 14:35:00,85.0,71.9,30.24,West,267,0.0,0.0,65,0.00,,,0.00,Wunderground v.1.13,2013-07-09 18:35:00,
2013-07-09 14:40:00,84.9,71.4,30.23,West,267,0.0,0.0,64,0.00,,,0.00,Wunderground v.1.13,2013-07-09 18:40:00,
2013-07-09 14:45:00,84.7,73.4,30.24,West,267,0.0,0.0,69,0.00,,,0.00,Wunderground v.1.13,2013-07-09 18:45:00,
2013-07-09 14:50:00,84.3,72.1,30.23,West,267,0.0,0.0,67,0.00,,,0.00,Wunderground v.1.13,2013-07-09 18:50:00,
2013-07-09 14:55:00,84.1,74.1,30.23,West,267,0.0,0.0,72,0.00,,,0.00,Wunderground v.1.13,2013-07-09 18:55:00,
2013-07-09 15:00:00,83.9,73.1,30.23,West,267,0.0,0.0,70,0.00,,,0.00,Wunderground v.1.13,2013-07-09 19:00:00,
2013-07-09 15:05:00,84.1,74.9,30.22,West,267,0.0,0.0,74,0.00,,,0.00,Wunderground v.1.13,2013-07-09 19:05:00,
2013-07-09 15:10:00,84.5,75.3,30.22,West,267,0.0,0.0,74,0.00,,,0.00,Wunderground v.1.13,2013-07-09 19:10:00,
2013-07-09 15:15:00,84.8,74.8,30.22,West,267,0.0,0.0,72,0.00,,,0.00,Wunderground v.1.13,2013-07-09 19:15:00,
2013-07-09 15:20:00,85.0,75.4,30.22,West,267,0.0,0.0,73,0.00,,,0.00,Wunderground v.1.13,2013-07-09 19:20:00,
2013-07-09 15:25:00,84.8,73.1,30.22,West,266,0.0,1.0,68,0.00,,,0.00,Wunderground v.1.13,2013-07-09 19:25:00,
2013-07-09 15:30:00,84.2,72.0,30.22,NNE,14,0.0,1.0,67,0.00,,,0.00,Wunderground v.1.13,2013-07-09 19:30:00,
2013-07-09 15:35:00,83.8,72.5,30.21,SSE,162,0.0,0.0,69,0.00,,,0.00,Wunderground v.1.13,2013-07-09 19:35:00,
2013-07-09 15:40:00,83.7,73.7,30.21,SSE,162,0.0,0.0,72,0.00,,,0.00,Wunderground v.1.13,2013-07-09 19:40:00,
2013-07-09 15:45:00,83.7,73.3,30.22,SSE,162,0.0,0.0,71,0.00,,,0.00,Wunderground v.1.13,2013-07-09 19:45:00,
2013-07-09 15:50:00,83.3,73.3,30.21,NNW,327,1.0,1.0,72,0.00,,,0.00,Wunderground v.1.13,2013-07-09 19:50:00,
2013-07-09 15:55:00,82.9,74.2,30.21,NNW,327,0.0,0.0,75,0.00,,,0.00,Wunderground v.1.13,2013-07-09 19:55:00,
2013-07-09 16:00:00,82.4,73.7,30.21,NNW,327,0.0,1.0,75,0.00,,,0.00,Wunderground v.1.13,2013-07-09 20:00:00,
2013-07-09 16:05:00,81.9,74.0,30.21,NNW,331,1.0,1.0,77,0.00,,,0.00,Wunderground v.1.13,2013-07-09 20:05:00,
2013-07-09 16:10:00,82.0,73.7,30.20,NNW,345,0.0,0.0,76,0.00,,,0.00,Wunderground v.1.13,2013-07-09 20:10:00,
2013-07-09 16:16:00,82.4,73.7,30.19,ESE,116,0.0,0.0,75,0.00,,,0.00,Wunderground v.1.13,2013-07-09 20:16:00,
2013-07-09 16:21:00,82.4,73.7,30.19,ESE,110,0.0,0.0,75,0.00,,,0.00,Wunderground v.1.13,2013-07-09 20:21:00,
2013-07-09 16:26:00,82.5,74.2,30.19,East,96,0.0,1.0,76,0.00,,,0.00,Wunderground v.1.13,2013-07-09 20:26:00,
2013-07-09 16:31:00,82.6,73.9,30.20,East,96,0.0,0.0,75,0.00,,,0.00,Wunderground v.1.13,2013-07-09 20:31:00,
2013-07-09 16:36:00,82.7,73.6,30.20,East,96,0.0,0.0,74,0.00,,,0.00,Wunderground v.1.13,2013-07-09 20:36:00,
2013-07-09 16:41:00,82.6,73.5,30.20,East,98,0.0,0.0,74,0.00,,,0.00,Wunderground v.1.13,2013-07-09 20:41:00,
2013-07-09 16:46:00,82.5,73.4,30.20,East,96,1.0,1.0,74,0.00,,,0.00,Wunderground v.1.13,2013-07-09 20:46:00,
2013-07-09 16:51:00,82.3,73.6,30.20,East,97,0.0,1.0,75,0.00,,,0.00,Wunderground v.1.13,2013-07-09 20:51:00,
2013-07-09 16:56:00,81.8,72.7,30.19,East,97,0.0,0.0,74,0.00,,,0.00,Wunderground v.1.13,2013-07-09 20:56:00,
2013-07-09 17:01:00,81.6,73.3,30.20,East,97,0.0,0.0,76,0.00,,,0.00,Wunderground v.1.13,2013-07-09 21:01:00,
2013-07-09 17:06:00,81.8,72.7,30.20,East,97,0.0,0.0,74,0.00,,,0.00,Wunderground v.1.13,2013-07-09 21:06:00,
2013-07-09 17:11:00,82.1,74.6,30.19,WSW,247,0.0,1.0,78,0.00,,,0.00,Wunderground v.1.13,2013-07-09 21:11:00,
2013-07-09 17:16:00,82.8,75.2,30.19,WSW,257,0.0,1.0,78,0.00,,,0.00,Wunderground v.1.13,2013-07-09 21:16:00,
2013-07-09 17:21:00,82.7,73.2,30.19,WNW,291,0.0,1.0,73,0.00,,,0.00,Wunderground v.1.13,2013-07-09 21:21:00,
2013-07-09 17:26:00,81.8,71.5,30.19,WNW,291,0.0,1.0,71,0.00,,,0.00,Wunderground v.1.13,2013-07-09 21:26:00,
2013-07-09 17:31:00,81.2,72.5,30.19,WNW,291,0.0,0.0,75,0.00,,,0.00,Wunderground v.1.13,2013-07-09 21:31:00,
2013-07-09 17:36:00,81.1,73.6,30.20,WNW,291,0.0,0.0,78,0.00,,,0.00,Wunderground v.1.13,2013-07-09 21:36:00,
2013-07-09 17:41:00,80.7,72.0,30.20,WNW,291,0.0,0.0,75,0.00,,,0.00,Wunderground v.1.13,2013-07-09 21:41:00,
2013-07-09 17:46:00,79.9,69.7,30.20,WSW,255,1.0,1.0,71,0.00,,,0.00,Wunderground v.1.13,2013-07-09 21:46:00,
2013-07-09 17:51:00,79.4,70.4,30.20,WSW,237,0.0,0.0,74,0.00,,,0.00,Wunderground v.1.13,2013-07-09 21:51:00,
2013-07-09 17:56:00,79.3,69.5,30.20,SSW,209,0.0,3.0,72,0.00,,,0.00,Wunderground v.1.13,2013-07-09 21:56:00,
2013-07-09 18:01:00,78.9,70.3,30.20,SW,236,1.0,1.0,75,0.00,,,0.00,Wunderground v.1.13,2013-07-09 22:01:00,
2013-07-09 18:06:00,77.9,69.7,30.21,SSW,192,0.0,3.0,76,0.00,,,0.00,Wunderground v.1.13,2013-07-09 22:06:00,
2013-07-09 18:11:00,77.4,70.7,30.20,West,263,0.0,1.0,80,0.00,,,0.00,Wunderground v.1.13,2013-07-09 22:11:00,
2013-07-09 18:16:00,77.2,70.9,30.20,South,185,0.0,1.0,81,0.00,,,0.00,Wunderground v.1.13,2013-07-09 22:16:00,
2013-07-09 18:21:00,77.2,70.5,30.20,South,185,1.0,1.0,80,0.00,,,0.00,Wunderground v.1.13,2013-07-09 22:21:00,
2013-07-09 18:26:00,77.1,70.1,30.19,South,185,0.0,0.0,79,0.00,,,0.00,Wunderground v.1.13,2013-07-09 22:26:00,
2013-07-09 18:31:00,76.8,69.4,30.19,South,185,0.0,0.0,78,0.00,,,0.00,Wunderground v.1.13,2013-07-09 22:31:00,
2013-07-09 18:36:00,76.2,68.5,30.20,South,185,0.0,0.0,77,0.00,,,0.00,Wunderground v.1.13,2013-07-09 22:36:00,
2013-07-09 18:41:00,75.5,68.5,30.20,South,184,0.0,2.0,79,0.00,,,0.00,Wunderground v.1.13,2013-07-09 22:41:00,
2013-07-09 18:47:00,74.8,68.6,30.21,South,186,0.0,0.0,81,0.00,,,0.00,Wunderground v.1.13,2013-07-09 22:47:00,
2013-07-09 18:52:00,74.6,69.4,30.21,South,186,0.0,0.0,84,0.00,,,0.00,Wunderground v.1.13,2013-07-09 22:52:00,
2013-07-09 18:57:00,74.6,70.1,30.20,South,186,0.0,0.0,86,0.00,,,0.00,Wunderground v.1.13,2013-07-09 22:57:00,
2013-07-09 19:02:00,74.5,70.0,30.20,South,186,0.0,0.0,86,0.00,,,0.00,Wunderground v.1.13,2013-07-09 23:02:00,
2013-07-09 19:07:00,74.6,70.5,30.21,South,186,0.0,0.0,87,0.00,,,0.00,Wunderground v.1.13,2013-07-09 23:07:00,
2013-07-09 19:12:00,74.6,70.5,30.19,South,186,0.0,0.0,87,0.00,,,0.00,Wunderground v.1.13,2013-07-09 23:12:00,
2013-07-09 19:17:00,74.6,70.5,30.19,South,186,0.0,0.0,87,0.00,,,0.00,Wunderground v.1.13,2013-07-09 23:17:00,
2013-07-09 19:22:00,74.6,70.5,30.19,South,186,0.0,0.0,87,0.00,,,0.00,Wunderground v.1.13,2013-07-09 23:22:00,
2013-07-09 19:27:00,74.5,70.7,30.19,South,186,0.0,0.0,88,0.00,,,0.00,Wunderground v.1.13,2013-07-09 23:27:00,
2013-07-09 19:32:00,74.4,70.3,30.19,South,186,0.0,0.0,87,0.00,,,0.00,Wunderground v.1.13,2013-07-09 23:32:00,
2013-07-09 19:37:00,74.3,70.2,30.19,South,186,0.0,0.0,87,0.00,,,0.00,Wunderground v.1.13,2013-07-09 23:37:00,
2013-07-09 19:42:00,74.3,70.2,30.20,South,186,0.0,0.0,87,0.00,,,0.00,Wunderground v.1.13,2013-07-09 23:42:00,
2013-07-09 19:47:00,74.2,70.4,30.20,South,186,0.0,0.0,88,0.00,,,0.00,Wunderground v.1.13,2013-07-09 23:47:00,
2013-07-09 19:52:00,74.1,70.3,30.21,South,186,0.0,0.0,88,0.00,,,0.00,Wunderground v.1.13,2013-07-09 23:52:00,
2013-07-09 19:57:00,74.0,70.2,30.20,South,186,0.0,0.0,88,0.00,,,0.00,Wunderground v.1.13,2013-07-09 23:57:00,
2013-07-09 20:02:00,73.8,70.0,30.21,South,186,0.0,0.0,88,0.00,,,0.00,Wunderground v.1.13,2013-07-10 00:02:00,
2013-07-09 20:07:00,73.7,70.6,30.22,South,186,0.0,0.0,90,0.00,,,0.00,Wunderground v.1.13,2013-07-10 00:07:00,
2013-07-09 20:12:00,73.4,70.3,30.22,South,186,0.0,0.0,90,0.00,,,0.00,Wunderground v.1.13,2013-07-10 00:12:00,
2013-07-09 20:18:00,73.2,70.1,30.22,South,186,0.0,0.0,90,0.00,,,0.00,Wunderground v.1.13,2013-07-10 00:18:00,
2013-07-09 20:22:00,73.1,70.3,30.22,South,186,0.0,0.0,91,0.00,,,0.00,Wunderground v.1.13,2013-07-10 00:22:00,
2013-07-09 20:27:00,72.9,69.8,30.22,South,186,0.0,0.0,90,0.00,,,0.00,Wunderground v.1.13,2013-07-10 00:27:00,
2013-07-09 20:32:00,72.5,68.7,30.22,South,186,0.0,0.0,88,0.00,,,0.00,Wunderground v.1.13,2013-07-10 00:32:00,
2013-07-09 20:37:00,72.3,69.2,30.22,South,186,0.0,0.0,90,0.00,,,0.00,Wunderground v.1.13,2013-07-10 00:37:00,
2013-07-09 20:43:00,72.2,69.4,30.23,South,186,0.0,1.0,91,0.00,,,0.00,Wunderground v.1.13,2013-07-10 00:43:00,
2013-07-09 20:48:00,72.0,69.5,30.23,South,186,0.0,0.0,92,0.00,,,0.00,Wunderground v.1.13,2013-07-10 00:48:00,
2013-07-09 20:53:00,71.9,69.4,30.23,South,186,0.0,0.0,92,0.00,,,0.00,Wunderground v.1.13,2013-07-10 00:53:00,
2013-07-09 20:58:00,71.7,69.6,30.22,South,186,0.0,0.0,93,0.00,,,0.00,Wunderground v.1.13,2013-07-10 00:58:00,
2013-07-09 21:03:00,71.7,69.9,30.22,South,186,0.0,0.0,94,0.00,,,0.00,Wunderground v.1.13,2013-07-10 01:03:00,
2013-07-09 21:08:00,71.5,69.7,30.22,South,186,0.0,0.0,94,0.00,,,0.00,Wunderground v.1.13,2013-07-10 01:08:00,
2013-07-09 21:13:00,71.5,69.7,30.22,South,186,0.0,0.0,94,0.00,,,0.00,Wunderground v.1.13,2013-07-10 01:13:00,
2013-07-09 21:18:00,71.4,69.6,30.23,South,186,0.0,0.0,94,0.00,,,0.00,Wunderground v.1.13,2013-07-10 01:18:00,
2013-07-09 21:23:00,71.4,69.9,30.23,South,186,0.0,0.0,95,0.00,,,0.00,Wunderground v.1.13,2013-07-10 01:23:00,
2013-07-09 21:28:00,71.3,69.8,30.23,South,186,0.0,0.0,95,0.00,,,0.00,Wunderground v.1.13,2013-07-10 01:28:00,
2013-07-09 21:33:00,71.4,69.9,30.23,South,186,0.0,0.0,95,0.00,,,0.00,Wunderground v.1.13,2013-07-10 01:33:00,
2013-07-09 21:38:00,71.3,69.8,30.23,South,186,0.0,0.0,95,0.00,,,0.00,Wunderground v.1.13,2013-07-10 01:38:00,
2013-07-09 21:43:00,71.2,69.7,30.23,South,186,0.0,0.0,95,0.00,,,0.01,Wunderground v.1.13,2013-07-10 01:43:00,
2013-07-09 21:48:00,71.1,69.6,30.23,South,186,0.0,0.0,95,0.11,,,0.02,Wunderground v.1.13,2013-07-10 01:48:00,
2013-07-09 21:53:00,71.0,69.5,30.23,South,186,0.0,0.0,95,0.08,,,0.02,Wunderground v.1.13,2013-07-10 01:53:00,
2013-07-09 21:58:00,71.0,69.8,30.22,South,186,0.0,0.0,96,0.05,,,0.03,Wunderground v.1.13,2013-07-10 01:58:00,
2013-07-09 22:03:00,71.0,69.8,30.22,South,186,0.0,0.0,96,0.12,,,0.04,Wunderground v.1.13,2013-07-10 02:03:00,
2013-07-09 22:08:00,71.0,69.8,30.22,South,186,0.0,0.0,96,0.12,,,0.04,Wunderground v.1.13,2013-07-10 02:08:00,
2013-07-09 22:13:00,70.9,69.7,30.22,South,186,0.0,0.0,96,0.21,,,0.06,Wunderground v.1.13,2013-07-10 02:13:00,
2013-07-09 22:18:00,70.9,69.7,30.22,South,186,0.0,0.0,96,0.11,,,0.07,Wunderground v.1.13,2013-07-10 02:18:00,
2013-07-09 22:23:00,70.8,69.6,30.21,South,186,0.0,0.0,96,0.09,,,0.07,Wunderground v.1.13,2013-07-10 02:23:00,
2013-07-09 22:28:00,70.7,69.5,30.22,South,186,0.0,0.0,96,0.05,,,0.07,Wunderground v.1.13,2013-07-10 02:28:00,
2013-07-09 22:33:00,70.6,69.4,30.22,South,186,0.0,0.0,96,0.04,,,0.07,Wunderground v.1.13,2013-07-10 02:33:00,
2013-07-09 22:38:00,70.5,69.3,30.23,South,186,0.0,0.0,96,0.00,,,0.07,Wunderground v.1.13,2013-07-10 02:38:00,
2013-07-09 22:43:00,70.5,69.3,30.23,South,186,0.0,0.0,96,0.00,,,0.08,Wunderground v.1.13,2013-07-10 02:43:00,
2013-07-09 22:48:00,70.4,69.5,30.23,South,186,0.0,0.0,97,0.00,,,0.08,Wunderground v.1.13,2013-07-10 02:48:00,
2013-07-09 22:53:00,70.4,69.5,30.23,South,186,0.0,0.0,97,0.00,,,0.08,Wunderground v.1.13,2013-07-10 02:53:00,
2013-07-09 22:58:00,70.3,69.4,30.23,South,186,0.0,0.0,97,0.00,,,0.08,Wunderground v.1.13,2013-07-10 02:58:00,
2013-07-09 23:03:00,70.2,69.3,30.23,South,186,0.0,0.0,97,0.00,,,0.08,Wunderground v.1.13,2013-07-10 03:03:00,
2013-07-09 23:08:00,70.2,69.3,30.23,South,186,0.0,0.0,97,0.00,,,0.08,Wunderground v.1.13,2013-07-10 03:08:00,
2013-07-09 23:13:00,70.2,69.3,30.23,South,186,0.0,0.0,97,0.00,,,0.08,Wunderground v.1.13,2013-07-10 03:13:00,
2013-07-09 23:18:00,70.1,69.2,30.23,South,186,0.0,0.0,97,0.00,,,0.08,Wunderground v.1.13,2013-07-10 03:18:00,
2013-07-09 23:23:00,70.1,69.2,30.23,South,186,0.0,0.0,97,0.00,,,0.08,Wunderground v.1.13,2013-07-10 03:23:00,
2013-07-09 23:28:00,70.0,69.1,30.23,South,186,0.0,0.0,97,0.00,,,0.08,Wunderground v.1.13,2013-07-10 03:28:00,
2013-07-09 23:33:00,69.9,69.0,30.23,South,186,0.0,0.0,97,0.00,,,0.08,Wunderground v.1.13,2013-07-10 03:33:00,
2013-07-09 23:38:00,69.7,68.8,30.23,South,186,0.0,0.0,97,0.00,,,0.08,Wunderground v.1.13,2013-07-10 03:38:00,
2013-07-09 23:43:00,69.7,68.8,30.23,South,186,0.0,0.0,97,0.00,,,0.08,Wunderground v.1.13,2013-07-10 03:43:00,
2013-07-09 23:48:00,69.6,68.7,30.23,South,186,0.0,0.0,97,0.00,,,0.08,Wunderground v.1.13,2013-07-10 03:48:00,
2013-07-09 23:53:00,69.5,68.6,30.23,South,186,0.0,0.0,97,0.00,,,0.08,Wunderground v.1.13,2013-07-10 03:53:00,
2013-07-09 23:59:00,69.5,68.6,30.23,South,186,0.0,0.0,97,0.00,,,0.08,Wunderground v.1.13,2013-07-10 03:59:00,